Lihue, HI

10:22 PM HST on October 17, 2017 (GMT -1000)
Lihue

Weather History for PHLI - November, 2012

Change the Weather History Date:

Sunday, November 25, 2012

  Actual Average Record
Temperature  
Mean Temperature 75 °F 75 °F  
Max Temperature 80 °F 80 °F 85 °F (1980)
Min Temperature 69 °F 70 °F 57 °F (1958)
Degree Days  
Heating Degree Days 0 0  
Month to date heating degree days 0 0  
Since 1 July heating degree days 0 0  
Cooling Degree Days 10 10  
Month to date cooling degree days 307 276  
Year to date cooling degree days 3794 3643  
Growing Degree Days 24 (Base 50)    
Moisture  
Dew Point 65 °F    
Average Humidity 71    
Maximum Humidity 84    
Minimum Humidity 58    
Precipitation  
Precipitation T in 0.15 in 3.76 in (1964)
Month to date precipitation 0.50 3.72  
Year to date precipitation 36.73 31.11  
Snow  
Snow 0.00 in - - ()
Month to date snowfall 0.0  
Since 1 July snowfall 0.0  
Since 1 September snowfall 0.0  
Snow Depth 0.00 in    
Sea Level Pressure  
Sea Level Pressure 30.01 in    
Wind  
Wind Speed 15 mph (North)    
Max Wind Speed 25 mph    
Max Gust Speed 31 mph    
Visibility 10 miles    
Events      
T = Trace of Precipitation, MM = Missing Value Source: NWS Daily Summary

Daily Weather History Graph

Daily Weather History Graph

Search for Another Location

Airport or City:

Trip Planner

Search our weather history database for the weather conditions in past years. The results will help you decide how hot, cold, wet, or windy it might be!

Date:

Astronomy

Nov. 25, 2012 Rise Set
Actual Time 6:56 AM HST 5:52 PM HST
Civil Twilight 6:32 AM HST 6:16 PM HST
Nautical Twilight 6:04 AM HST 6:44 PM HST
Astronomical Twilight 5:37 AM HST 7:11 PM HST
Moon 4:06 PM HST (11/25) 4:33 AM HST (11/25)
Length of Visible Light 11h 44m
Length of Day
10h 56m
Waxing Gibbous, 94% of the Moon is Illuminated
Nov 25
Waxing Gibbous
Nov 28
Full
Dec 6
Last Quarter
Dec 12
New
Dec 19
First Quarter

Hourly Weather History & Observations

Time (HST) Temp. Heat Index Dew Point Humidity Pressure Visibility Wind Dir Wind Speed Gust Speed Precip Events Conditions
12:01 AM 73.4 °F - 66.2 °F 78% 30.02 in 10.0 mi North 5.8 mph - N/A   Mostly Cloudy
12:20 AM 73.4 °F - 66.2 °F 78% 30.01 in 10.0 mi North 5.8 mph - N/A   Scattered Clouds
12:27 AM 73.4 °F - 66.2 °F 78% 30.01 in 10.0 mi North 5.8 mph - N/A   Mostly Cloudy
12:53 AM 73.0 °F - 66.0 °F 79% 30.00 in 10.0 mi North 4.6 mph - N/A   Scattered Clouds
1:53 AM 75.0 °F - 66.9 °F 76% 30.00 in 10.0 mi NNE 8.1 mph - N/A   Partly Cloudy
2:12 AM 73.4 °F - 66.2 °F 78% 30.00 in 10.0 mi NW 4.6 mph - N/A   Mostly Cloudy
2:36 AM 71.6 °F - 66.2 °F 83% 30.00 in 10.0 mi NW 3.5 mph - N/A   Scattered Clouds
2:53 AM 73.0 °F - 66.9 °F 81% 29.99 in 10.0 mi North 8.1 mph - N/A   Scattered Clouds
3:53 AM 72.0 °F - 66.0 °F 81% 29.98 in 10.0 mi NNW 6.9 mph - N/A   Partly Cloudy
4:53 AM 69.1 °F - 64.0 °F 84% 29.99 in 10.0 mi WNW 5.8 mph - N/A   Partly Cloudy
5:53 AM 70.0 °F - 64.0 °F 81% 30.00 in 10.0 mi NW 4.6 mph - N/A   Clear
6:53 AM 72.0 °F - 66.0 °F 81% 30.02 in 10.0 mi North 6.9 mph - N/A   Partly Cloudy
7:53 AM 73.0 °F - 66.0 °F 79% 30.03 in 10.0 mi North 5.8 mph - N/A   Clear
8:53 AM 77.0 °F - 66.9 °F 71% 30.04 in 10.0 mi North 9.2 mph - N/A   Clear
9:16 AM 78.8 °F - 66.2 °F 65% 30.06 in 10.0 mi NNE 12.7 mph - N/A   Partly Cloudy
9:53 AM 78.1 °F - 66.9 °F 68% 30.06 in 10.0 mi NNE 12.7 mph - N/A   Scattered Clouds
10:53 AM 80.1 °F 82.1 °F 66.0 °F 62% 30.05 in 10.0 mi NE 18.4 mph - 0.00 in   Scattered Clouds
11:53 AM 80.1 °F 82.1 °F 66.0 °F 62% 30.02 in 10.0 mi NE 18.4 mph - N/A   Scattered Clouds
12:53 PM 80.1 °F 82.1 °F 66.0 °F 62% 30.00 in 10.0 mi NE 19.6 mph - N/A   Scattered Clouds
1:53 PM 80.1 °F 81.7 °F 64.0 °F 58% 29.97 in 10.0 mi NNE 17.3 mph - N/A   Scattered Clouds
2:53 PM 78.1 °F - 64.0 °F 62% 29.96 in 10.0 mi NE 21.9 mph - 0.00 in   Mostly Cloudy
3:53 PM 78.1 °F - 64.0 °F 62% 29.96 in 10.0 mi NNE 21.9 mph 27.6 mph N/A   Overcast
4:53 PM 77.0 °F - 63.0 °F 62% 29.98 in 10.0 mi NNE 20.7 mph 28.8 mph N/A   Overcast
5:53 PM 75.9 °F - 64.0 °F 67% 30.00 in 10.0 mi NNE 21.9 mph - N/A   Overcast
6:53 PM 75.9 °F - 62.1 °F 62% 30.01 in 10.0 mi NNE 21.9 mph 26.5 mph N/A   Partly Cloudy
7:53 PM 75.0 °F - 63.0 °F 66% 30.04 in 10.0 mi NNE 20.7 mph - 0.00 in   Scattered Clouds
8:53 PM 75.0 °F - 63.0 °F 66% 30.04 in 10.0 mi NNE 17.3 mph - N/A   Partly Cloudy
9:53 PM 75.0 °F - 63.0 °F 66% 30.04 in 10.0 mi NNE 18.4 mph - N/A   Scattered Clouds
10:53 PM 75.0 °F - 64.0 °F 69% 30.04 in 10.0 mi NE 20.7 mph - N/A   Mostly Cloudy
11:53 PM 75.0 °F - 64.0 °F 69% 30.04 in 10.0 mi NNE 20.7 mph - N/A   Scattered Clouds